| time (UTC) | temp F | wind direction | speed MPH | gust MPH | rain 1hr in | rain 24hr in | rain mn in | humidity % | barometer mb |
| 20260506215538 | 86 | 168 | 7.0 | 9.0 | 0.00 | 0.00 | 0.00 | 68 | 1012.5 |
| 20260506214526 | 87 | 159 | 8.0 | 12.0 | 0.00 | 0.00 | 0.00 | 67 | 1012.5 |
| 20260506213534 | 88 | 142 | 8.0 | 12.0 | 0.00 | 0.00 | 0.00 | 67 | 1012.6 |
| 20260506212543 | 87 | 181 | 7.0 | 11.0 | 0.00 | 0.00 | 0.00 | 68 | 1012.7 |
| 20260506211530 | 87 | 175 | 6.0 | 10.0 | 0.00 | 0.00 | 0.00 | 67 | 1012.8 |
| 20260506210520 | 88 | 158 | 6.0 | 13.0 | 0.00 | 0.00 | 0.00 | 68 | 1012.7 |
| 20260506205527 | 87 | 151 | 7.0 | 12.0 | 0.00 | 0.00 | 0.00 | 69 | 1012.8 |
| 20260506204717 | 87 | 188 | 8.0 | 11.0 | 0.00 | 0.00 | 0.00 | 69 | 1012.9 |
| 20260506203524 | 88 | 158 | 7.0 | 10.0 | 0.00 | 0.00 | 0.00 | 68 | 1013.1 |
| 20260506202532 | 88 | 159 | 7.0 | 10.0 | 0.00 | 0.00 | 0.00 | 66 | 1013.1 |
| 20260506201521 | 89 | 180 | 6.0 | 11.0 | 0.00 | 0.00 | 0.00 | 66 | 1013.4 |
| 20260506200532 | 88 | 161 | 6.0 | 9.0 | 0.00 | 0.00 | 0.00 | 67 | 1013.5 |
| 20260506195538 | 88 | 181 | 5.0 | 10.0 | 0.00 | 0.00 | 0.00 | 66 | 1013.7 |
| 20260506194527 | 87 | 179 | 8.0 | 9.0 | 0.00 | 0.00 | 0.00 | 66 | 1013.9 |
| 20260506193535 | 88 | 178 | 7.0 | 11.0 | 0.00 | 0.00 | 0.00 | 65 | 1014.0 |
| 20260506192523 | 87 | 161 | 8.0 | 15.0 | 0.00 | 0.00 | 0.00 | 67 | 1014.2 |
| 20260506191531 | 87 | 177 | 7.0 | 10.0 | 0.00 | 0.00 | 0.00 | 67 | 1014.5 |
| 20260506190520 | 87 | 165 | 7.0 | 11.0 | 0.00 | 0.00 | 0.00 | 67 | 1014.6 |
| 20260506185529 | 86 | 176 | 6.0 | 10.0 | 0.00 | 0.00 | 0.00 | 69 | 1014.6 |
| 20260506184537 | 86 | 144 | 7.0 | 11.0 | 0.00 | 0.00 | 0.00 | 69 | 1014.9 |
| 20260506183546 | 86 | 189 | 4.0 | 7.0 | 0.00 | 0.00 | 0.00 | 70 | 1015.0 |
| 20260506182533 | 86 | 174 | 7.0 | 9.0 | 0.00 | 0.00 | 0.00 | 70 | 1015.1 |
| 20260506181525 | 86 | 144 | 7.0 | 11.0 | 0.00 | 0.00 | 0.00 | 69 | 1015.0 |
| 20260506180530 | 86 | 172 | 7.0 | 11.0 | 0.00 | 0.00 | 0.00 | 70 | 1015.0 |
| 20260506175520 | 86 | 179 | 5.0 | 8.0 | 0.00 | 0.00 | 0.00 | 71 | 1015.1 |
| 20260506174548 | 85 | 166 | 5.0 | 11.0 | 0.00 | 0.00 | 0.00 | 73 | 1015.3 |
| 20260506173535 | 85 | 164 | 6.0 | 9.0 | 0.00 | 0.00 | 0.00 | 75 | 1015.3 |
| 20260506172525 | 83 | 155 | 6.0 | 10.0 | 0.00 | 0.00 | 0.00 | 79 | 1015.5 |
| 20260506171535 | 82 | 152 | 5.0 | 8.0 | 0.00 | 0.00 | 0.00 | 82 | 1015.7 |
| 20260506170522 | 83 | 170 | 5.0 | 7.0 | 0.00 | 0.00 | 0.00 | 77 | 1015.6 |
| 20260506165530 | 83 | 163 | 5.0 | 9.0 | 0.00 | 0.00 | 0.00 | 77 | 1015.6 |
| 20260506164559 | 83 | 173 | 5.0 | 8.0 | 0.00 | 0.00 | 0.00 | 77 | 1015.5 |
| 20260506163528 | 83 | 153 | 5.0 | 9.0 | 0.00 | 0.00 | 0.00 | 76 | 1015.4 |
| 20260506162536 | 84 | 146 | 4.0 | 6.0 | 0.00 | 0.00 | 0.00 | 76 | 1015.3 |
| 20260506161525 | 83 | 144 | 5.0 | 10.0 | 0.00 | 0.00 | 0.00 | 76 | 1015.0 |
| 20260506160533 | 83 | 166 | 5.0 | 8.0 | 0.00 | 0.00 | 0.00 | 77 | 1015.2 |
| 20260506155524 | 83 | 207 | 4.0 | 8.0 | 0.00 | 0.00 | 0.00 | 78 | 1015.1 |
| 20260506154531 | 82 | 170 | 4.0 | 11.0 | 0.00 | 0.00 | 0.00 | 79 | 1015.1 |
| 20260506153520 | 82 | 179 | 5.0 | 9.0 | 0.00 | 0.00 | 0.00 | 79 | 1015.0 |
| 20260506152527 | 82 | 165 | 6.0 | 12.0 | 0.00 | 0.00 | 0.00 | 79 | 1014.9 |
| 20260506151535 | 82 | 194 | 7.0 | 9.0 | 0.00 | 0.00 | 0.00 | 79 | 1014.9 |
| 20260506150545 | 82 | 184 | 5.0 | 12.0 | 0.00 | 0.00 | 0.00 | 80 | 1014.9 |
| 20260506145533 | 81 | 152 | 6.0 | 9.0 | 0.00 | 0.00 | 0.00 | 81 | 1014.8 |
| 20260506144522 | 81 | 162 | 5.0 | 7.0 | 0.00 | 0.00 | 0.00 | 81 | 1014.9 |
| 20260506143530 | 81 | 184 | 5.0 | 7.0 | 0.00 | 0.00 | 0.00 | 82 | 1014.8 |
| 20260506142519 | 80 | 166 | 4.0 | 6.0 | 0.00 | 0.00 | 0.00 | 83 | 1014.6 |
| 20260506141527 | 80 | 151 | 6.0 | 9.0 | 0.00 | 0.00 | 0.00 | 84 | 1014.4 |
| 20260506140536 | 79 | 167 | 5.0 | 9.0 | 0.00 | 0.00 | 0.00 | 85 | 1014.3 |
| 20260506135525 | 79 | 159 | 6.0 | 8.0 | 0.00 | 0.00 | 0.00 | 86 | 1014.4 |
| 20260506134533 | 78 | 143 | 4.0 | 6.0 | 0.00 | 0.00 | 0.00 | 87 | 1014.5 |
| 20260506133542 | 78 | 149 | 5.0 | 6.0 | 0.00 | 0.00 | 0.00 | 88 | 1014.5 |
| 20260506132550 | 77 | 154 | 5.0 | 9.0 | 0.00 | 0.00 | 0.00 | 89 | 1014.5 |
| 20260506131519 | 76 | 155 | 4.0 | 6.0 | 0.00 | 0.00 | 0.00 | 90 | 1014.3 |
| 20260506130527 | 76 | 177 | 4.0 | 6.0 | 0.00 | 0.00 | 0.00 | 91 | 1014.4 |
| 20260506125556 | 76 | 148 | 4.0 | 5.0 | 0.00 | 0.00 | 0.00 | 92 | 1014.4 |
| 20260506124524 | 75 | 149 | 4.0 | 7.0 | 0.00 | 0.00 | 0.00 | 92 | 1014.3 |
| 20260506123535 | 75 | 153 | 4.0 | 6.0 | 0.00 | 0.00 | 0.00 | 93 | 1014.2 |
| 20260506122522 | 75 | 149 | 4.0 | 5.0 | 0.00 | 0.00 | 0.00 | 93 | 1014.1 |
| 20260506121531 | 75 | 144 | 3.0 | 5.0 | 0.00 | 0.00 | 0.00 | 93 | 1014.0 |
| 20260506120618 | 75 | 156 | 2.0 | 5.0 | 0.00 | 0.00 | 0.00 | 93 | 1013.9 |
| 20260506115527 | 75 | 145 | 4.0 | 5.0 | 0.00 | 0.00 | 0.00 | 93 | 1013.7 |
| 20260506114535 | 75 | 159 | 3.0 | 6.0 | 0.00 | 0.00 | 0.00 | 93 | 1013.8 |
| 20260506113544 | 75 | 149 | 4.0 | 6.0 | 0.00 | 0.00 | 0.00 | 93 | 1013.7 |
| 20260506112532 | 75 | 147 | 4.0 | 5.0 | 0.00 | 0.00 | 0.00 | 92 | 1013.6 |
| 20260506111522 | 75 | 150 | 3.0 | 5.0 | 0.00 | 0.00 | 0.00 | 92 | 1013.6 |
| 20260506110530 | 75 | 140 | 4.0 | 5.0 | 0.00 | 0.00 | 0.00 | 91 | 1013.5 |
| 20260506105538 | 75 | 141 | 4.0 | 7.0 | 0.00 | 0.00 | 0.00 | 90 | 1013.5 |
| 20260506104527 | 75 | 170 | 4.0 | 5.0 | 0.00 | 0.00 | 0.00 | 89 | 1013.3 |
| 20260506103534 | 75 | 144 | 3.0 | 6.0 | 0.00 | 0.00 | 0.00 | 87 | 1013.2 |
| 20260506102523 | 75 | 154 | 5.0 | 7.0 | 0.00 | 0.00 | 0.00 | 86 | 1013.2 |
| 20260506101532 | 75 | 146 | 5.0 | 7.0 | 0.00 | 0.00 | 0.00 | 86 | 1013.1 |
| 20260506100521 | 75 | 147 | 4.0 | 6.0 | 0.00 | 0.00 | 0.00 | 86 | 1013.0 |
| 20260506095532 | 75 | 150 | 4.0 | 7.0 | 0.00 | 0.00 | 0.00 | 86 | 1013.0 |
| 20260506094538 | 75 | 171 | 5.0 | 8.0 | 0.00 | 0.00 | 0.00 | 86 | 1013.2 |
| 20260506093527 | 75 | 152 | 3.0 | 4.0 | 0.00 | 0.00 | 0.00 | 86 | 1013.1 |
| 20260506092534 | 75 | 173 | 3.0 | 5.0 | 0.00 | 0.00 | 0.00 | 86 | 1013.1 |
| 20260506091525 | 75 | 155 | 3.0 | 4.0 | 0.00 | 0.00 | 0.00 | 86 | 1013.1 |
| 20260506090532 | 75 | 133 | 3.0 | 4.0 | 0.00 | 0.00 | 0.00 | 85 | 1013.2 |
| 20260506085543 | 74 | 159 | 3.0 | 5.0 | 0.00 | 0.00 | 0.00 | 85 | 1013.2 |
| 20260506084529 | 74 | 157 | 3.0 | 4.0 | 0.00 | 0.00 | 0.00 | 85 | 1013.3 |
| 20260506083537 | 74 | 162 | 3.0 | 4.0 | 0.00 | 0.00 | 0.00 | 85 | 1013.3 |
| 20260506082527 | 74 | 162 | 4.0 | 6.0 | 0.00 | 0.00 | 0.00 | 85 | 1013.2 |
| 20260506081535 | 74 | 160 | 4.0 | 7.0 | 0.00 | 0.00 | 0.00 | 85 | 1013.1 |
| 20260506080524 | 74 | 152 | 4.0 | 5.0 | 0.00 | 0.00 | 0.00 | 85 | 1013.0 |
| 20260506072537 | 74 | 157 | 5.0 | 8.0 | 0.00 | 0.00 | 0.00 | 85 | 1013.2 |
| 20260506071527 | 74 | 132 | 5.0 | 7.0 | 0.00 | 0.00 | 0.00 | 85 | 1013.2 |
| 20260506070806 | 0 | 158 | 7.0 | 7.0 | 0.00 | 0.00 | 0.00 | 1013.2 | |
| 20260506070536 | 74 | 158 | 5.0 | 8.0 | 0.00 | 0.00 | 0.00 | 85 | 1013.2 |
| 20260506061538 | 74 | 150 | 6.0 | 10.0 | 0.00 | 0.00 | 0.00 | 85 | 1013.5 |
| 20260506060526 | 74 | 157 | 5.0 | 10.0 | 0.00 | 0.00 | 0.00 | 85 | 1013.5 |
| 20260506050536 | 74 | 156 | 6.0 | 10.0 | 0.00 | 0.00 | 0.00 | 84 | 1013.6 |
| 20260506044555 | 74 | 139 | 6.0 | 8.0 | 0.00 | 0.00 | 0.00 | 84 | 1013.8 |
| 20260506043523 | 74 | 158 | 6.0 | 9.0 | 0.00 | 0.00 | 0.00 | 84 | 1013.9 |
| 20260506042531 | 75 | 159 | 7.0 | 12.0 | 0.00 | 0.00 | 0.00 | 84 | 1013.9 |
| 20260506041521 | 75 | 146 | 6.0 | 10.0 | 0.00 | 0.00 | 0.00 | 84 | 1013.9 |
| 20260506040528 | 75 | 143 | 5.0 | 7.0 | 0.00 | 0.00 | 0.00 | 84 | 1013.9 |
| 20260506035536 | 75 | 145 | 5.0 | 8.0 | 0.00 | 0.00 | 0.00 | 83 | 1014.0 |
| 20260506034526 | 75 | 169 | 6.0 | 10.0 | 0.00 | 0.00 | 0.00 | 83 | 1014.0 |
| 20260506033534 | 75 | 144 | 6.0 | 9.0 | 0.00 | 0.00 | 0.00 | 82 | 1013.9 |
| 20260506032522 | 75 | 157 | 5.0 | 9.0 | 0.00 | 0.00 | 0.00 | 82 | 1014.0 |
| 20260506031530 | 75 | 164 | 7.0 | 10.0 | 0.00 | 0.00 | 0.00 | 81 | 1014.0 |
| 20260506030519 | 75 | 153 | 7.0 | 11.0 | 0.00 | 0.00 | 0.00 | 81 | 1014.0 |
| 20260506025609 | 75 | 137 | 5.0 | 8.0 | 0.00 | 0.00 | 0.00 | 81 | 1013.9 |
| 20260506024535 | 75 | 139 | 6.0 | 8.0 | 0.00 | 0.00 | 0.00 | 81 | 1013.9 |
| 20260506023524 | 76 | 138 | 6.0 | 8.0 | 0.00 | 0.00 | 0.00 | 80 | 1013.8 |
| 20260506022532 | 76 | 150 | 5.0 | 7.0 | 0.00 | 0.00 | 0.00 | 79 | 1013.8 |
| 20260506021521 | 76 | 162 | 5.0 | 7.0 | 0.00 | 0.00 | 0.00 | 79 | 1013.6 |
| 20260506020529 | 76 | 163 | 4.0 | 6.0 | 0.00 | 0.00 | 0.00 | 78 | 1013.5 |
| 20260506015538 | 76 | 165 | 4.0 | 7.0 | 0.00 | 0.00 | 0.00 | 76 | 1013.5 |
| 20260506014527 | 77 | 148 | 5.0 | 7.0 | 0.00 | 0.00 | 0.00 | 76 | 1013.3 |
| 20260506013535 | 77 | 139 | 4.0 | 7.0 | 0.00 | 0.00 | 0.00 | 76 | 1013.3 |
| 20260506012545 | 77 | 180 | 4.0 | 7.0 | 0.00 | 0.00 | 0.00 | 76 | 1013.3 |
| 20260506011553 | 77 | 139 | 5.0 | 7.0 | 0.00 | 0.00 | 0.00 | 76 | 1013.3 |
| 20260506010541 | 77 | 150 | 5.0 | 7.0 | 0.00 | 0.00 | 0.00 | 75 | 1013.3 |
| 20260506005529 | 77 | 140 | 6.0 | 11.0 | 0.00 | 0.00 | 0.00 | 75 | 1013.5 |
| 20260506004537 | 78 | 145 | 5.0 | 8.0 | 0.00 | 0.00 | 0.00 | 74 | 1013.3 |
| 20260506003527 | 78 | 167 | 6.0 | 9.0 | 0.00 | 0.00 | 0.00 | 73 | 1013.3 |
| 20260506002535 | 78 | 150 | 6.0 | 9.0 | 0.00 | 0.00 | 0.00 | 72 | 1013.4 |
| 20260506001525 | 78 | 184 | 6.0 | 8.0 | 0.00 | 0.00 | 0.00 | 71 | 1013.3 |
| 20260506000532 | 79 | 134 | 5.0 | 7.0 | 0.00 | 0.00 | 0.00 | 70 | 1013.2 |
| 20260505235521 | 79 | 160 | 6.0 | 10.0 | 0.00 | 0.00 | 0.00 | 69 | 1013.2 |
| 20260505234529 | 79 | 171 | 6.0 | 11.0 | 0.00 | 0.00 | 0.00 | 69 | 1013.3 |
| 20260505233537 | 79 | 149 | 6.0 | 9.0 | 0.00 | 0.00 | 0.00 | 69 | 1013.3 |
| 20260505232526 | 80 | 159 | 6.0 | 9.0 | 0.00 | 0.00 | 0.00 | 69 | 1013.3 |
| 20260505231536 | 80 | 144 | 6.0 | 11.0 | 0.00 | 0.00 | 0.00 | 68 | 1013.3 |
| 20260505230523 | 80 | 158 | 7.0 | 11.0 | 0.00 | 0.00 | 0.00 | 67 | 1013.4 |
| 20260505225531 | 81 | 166 | 7.0 | 10.0 | 0.00 | 0.00 | 0.00 | 67 | 1013.3 |
| 20260505224521 | 81 | 157 | 7.0 | 13.0 | 0.00 | 0.00 | 0.00 | 66 | 1013.3 |
| 20260505223529 | 81 | 150 | 7.0 | 11.0 | 0.00 | 0.00 | 0.00 | 66 | 1013.3 |
| 20260505222538 | 82 | 178 | 8.0 | 11.0 | 0.00 | 0.00 | 0.00 | 65 | 1013.1 |
| 20260505221526 | 82 | 137 | 8.0 | 12.0 | 0.00 | 0.00 | 0.00 | 66 | 1013.1 |
| 20260505220537 | 82 | 166 | 8.0 | 12.0 | 0.00 | 0.00 | 0.00 | 66 | 1013.2 |